Regional Weather Roundup
Issued by NWS

Home | Current Version | Previous Version | Text Only | Print | Product List | Glossary Off
Versions: 1 2 3 4 5 6 7 8 9 10 11 12 13 14 15 16 17 18 19 20 21 22 23 24 25 26 27 28 29 30 31 32 33 34 35 36 37 38 39 40 41 42 43 44 45 46 47 48 49 50

000
ASUS43 KBIS 291820
RWRND

NORTH DAKOTA REGIONAL WEATHER ROUNDUP
NATIONAL WEATHER SERVICE BISMARCK ND
100 PM CDT FRI AUG 29 2014

NOTE: "FAIR" INDICATES FEW OR NO CLOUDS BELOW 12,000 FEET WITH NO
SIGNIFICANT WEATHER AND/OR OBSTRUCTIONS TO VISIBILITY.


NDZ001>003-009>011-017-291900-
NORTHWEST NORTH DAKOTA

CITY           SKY/WX    TMP DP  RH WIND       PRES   REMARKS
WILLISTON      CLOUDY    69  54  58 N9        29.98F
6HR MIN TEMP:  59; 6HR MAX TEMP:  69;

MINOT          CLOUDY    67  55  65 NW14G22   29.92R
MINOT AFB      CLOUDY    64  55  72 N16       29.92R
$$

NDZ018>021-031>035-040>046-291900-
SOUTHWEST NORTH DAKOTA

CITY           SKY/WX    TMP DP  RH WIND       PRES   REMARKS
BISMARCK       PTSUNNY   68  61  78 NW10      29.90R
6HR MIN TEMP:  64; 6HR MAX TEMP:  75; 6HR PCP: TRACE;

DICKINSON      CLOUDY    62  56  80 N13       29.97R
GARRISON         N/A     66  59  78 N15G21    29.91R
6HR MIN TEMP:  59; 6HR MAX TEMP:  66;

HETTINGER ARPT MOSUNNY   68  56  65 NW21G30   29.97S
$$

NDZ004>008-012>016-024-026-027-054-291900-
NORTHEAST NORTH DAKOTA

CITY           SKY/WX    TMP DP  RH WIND       PRES   REMARKS
GRAND FORKS    DRIZZLE   67  65  93 S5        29.76S FOG
GRND FRKS AFB  CLOUDY    68  68 100 SW2       29.77S
DEVILS LAKE    CLOUDY    66  55  68 N24       29.80R
$$

NDZ022-023-025-028>030-036>039-047>053-291900-
SOUTHEAST NORTH DAKOTA

CITY           SKY/WX    TMP DP  RH WIND       PRES   REMARKS
FARGO          CLOUDY    70  64  81 W7        29.77R
6HR MIN TEMP:  66; 6HR MAX TEMP:  70;

JAMESTOWN      CLOUDY    73  63  70 NW14      29.79S
$$



USA.gov is the U.S. government's official web portal to all federal, state and local government web resources and services.